Wind_Speed
27 26 27 33 46 49 55 59 65 68 67 62 59 55 49 45 39 36 18 16 7 3 4 4 4 5 4 3 4 5 4 1 2 3 3 2 3 1 2 2 1 3 4 4 5 7 8 3 1 2 4 3 7 15
21 43 40 45 52 54 55 54 55 56 54 50 45 41 40 38 30 32 13 14 13 5 4 5 6 7 3 7 5 2 3 3 3 3 1 2 2 1 1 2 2 3 3 2 2 4 4 1 6 7 5 9 11 11
54 50 49 49 48 48 53 56 57 57 54 49 46 43 38 30 27 25 24 15 11 3 3 3 3 5 9 6 7 4 0 4 3 2 3 2 2 3 2 4 3 4 4 3 3 5 6 10 10 12 10 12 13 9
55 54 53 52 52 52 51 49 48 46 45 44 43 39 34 29 26 30 16 13 12 4 4 1 2 5 4 6 5 7 9 6 5 3 2 3 2 4 3 5 6 5 3 3 11 15 12 15 10 8 12 10 12 10
57 53 51 50 48 48 47 46 44 43 41 39 37 34 30 31 33 32 29 20 11 3 4 3 2 3 3 6 8 8 10 4 2 2 2 3 2 0 3 3 12 5 15 8 14 14 10 14 11 12 10 17 15 14
50 49 48 47 46 46 46 46 46 44 42 41 41 39 36 33 31 15 4 13 14 7 4 3 3 4 6 4 8 5 5 3 3 4 3 2 3 4 3 4 5 8 11 15 17 19 16 14 11 14 14 17 17 17
47 45 43 42 42 43 43 44 44 44 44 41 38 32 22 13 15 7 4 6 9 7 3 3 2 3 3 4 2 3 2 2 3 2 2 4 4 5 4 13 21 13 13 15 16 11 10 14 12 14 11 14 16 15
42 42 40 40 41 41 41 41 40 39 38 36 34 35 31 26 19 19 20 13 9 10 3 3 1 3 6 2 2 1 2 1 1 3 0 3 1 3 5 14 14 10 9 12 15 16 15 16 16 15 14 9 8 7
38 38 39 39 39 39 39 38 37 36 36 35 29 23 16 13 6 5 11 13 17 9 3 2 3 2 4 2 1 3 2 0 1 2 3 4 2 5 10 4 6 7 6 7 8 8 8 9 12 6 6 6 7 9
36 35 35 35 35 35 35 35 34 31 28 21 9 8 4 5 10 3 4 4 5 4 4 3 1 1 2 3 2 2 1 1 2 4 2 3 4 11 7 3 3 4 5 6 5 4 3 3 5 5 7 8 7 8
30 30 31 31 30 30 29 27 23 18 14 7 3 3 7 3 3 3 3 4 2 3 1 1 2 1 2 2 2 2 2 2 2 3 3 2 3 2 2 3 5 7 7 8 8 8 8 9 9 9 10 9 9 9
25 25 26 26 25 24 20 16 11 10 8 9 16 8 4 4 3 6 2 1 3 2 1 3 2 3 1 2 1 1 2 1 5 1 2 2 2 3 4 3 5 4 4 6 6 7 8 9 9 8 8 9 10 12
18 20 21 22 19 18 15 16 26 24 11 6 5 4 3 2 7 4 1 2 2 1 1 2 1 2 1 2 2 2 2 5 2 2 3 2 3 4 5 5 5 6 5 5 5 3 4 6 8 7 7 11 13 12
18 17 21 19 16 14 15 15 9 7 6 3 4 5 3 3 1 3 3 3 3 3 4 2 3 2 2 2 2 2 4 2 2 3 3 2 5 6 7 7 8 9 10 8 5 5 4 4 5 10 9 12 11 8
22 22 23 22 18 14 10 6 4 9 4 3 4 2 2 2 0 1 1 1 2 2 2 1 1 1 2 2 3 4 4 4 4 0 2 3 6 8 8 9 11 10 9 9 7 4 5 7 5 6 9 10 8 4
19 17 13 14 14 12 9 8 7 5 3 2 3 3 1 3 3 3 1 2 2 2 1 2 2 2 3 2 3 4 2 3 0 2 1 2 5 5 8 6 8 9 8 8 9 9 10 8 6 6 6 6 4 1
8 4 9 9 7 6 7 5 4 4 2 2 1 2 3 2 4 3 3 3 3 1 2 1 2 4 2 3 3 1 0 1 1 3 1 3 6 8 8 6 7 12 11 12 13 15 12 11 8 5 2 1 1 3
12 13 10 8 6 5 4 5 3 2 2 0 1 3 2 2 3 2 3 2 3 2 2 3 1 2 3 3 2 2 1 1 1 1 3 5 6 7 8 8 12 12 13 14 13 12 10 7 4 4 5 6 7 10
15 13 10 8 3 3 3 3 3 1 2 2 2 1 2 3 3 2 2 3 3 3 3 1 3 3 3 1 3 2 1 1 2 2 3 5 8 10 11 14 16 16 15 15 13 9 10 13 11 10 10 11 8 9
11 10 8 3 4 3 2 1 2 1 2 2 1 2 2 3 1 0 1 3 4 3 3 4 4 3 2 0 1 2 1 0 1 4 4 3 10 12 11 12 11 17 17 15 12 12 9 9 9 12 14 15 12 10
7 5 3 0 3 3 1 1 2 2 2 2 2 1 3 1 1 1 1 2 3 2 2 2 2 1 1 1 4 4 2 2 2 3 5 7 9 10 11 13 13 13 11 12 5 8 10 6 3 1 8 11 15 17
2 6 2 2 1 1 2 2 2 2 2 3 3 2 2 1 2 2 2 2 2 3 3 3 2 1 0 2 2 4 2 2 4 5 5 6 3 5 6 12 12 7 11 13 14 9 7 7 7 8 13 15 17 18
2 4 1 3 2 1 4 3 2 3 2 2 1 2 2 2 3 2 2 1 2 2 3 2 2 2 5 8 5 2 2 3 3 6 8 9 12 13 12 14 14 10 7 15 17 10 8 12 13 14 16 18 20 18
1 2 2 3 4 3 2 2 3 2 0 2 2 3 3 2 1 2 4 3 2 1 1 1 3 2 2 2 1 2 2 3 5 8 7 7 4 9 14 15 15 14 13 17 13 3 9 12 15 16 18 18 16 15
0 4 2 4 2 2 1 3 3 1 2 2 1 4 2 1 1 2 3 2 2 1 1 1 1 1 2 2 1 5 4 3 4 3 13 4 8 13 12 14 16 6 18 15 9 2 8 12 13 16 16 16 16 16
4 4 7 5 2 4 4 2 3 4 2 1 4 2 2 2 1 5 3 3 3 4 4 4 3 2 1 3 2 1 4 4 6 4 6 5 6 5 4 4 5 9 21 17 8 2 6 10 13 15 15 16 19 20
5 6 4 3 2 2 1 1 1 2 3 5 3 1 2 2 5 4 1 2 2 7 11 9 9 6 3 1 2 3 4 6 8 11 8 1 4 6 6 5 6 14 17 14 6 4 7 10 13 15 16 16 16 18
5 4 6 4 3 1 4 2 4 6 4 3 3 3 6 7 4 3 3 6 7 12 10 7 7 5 3 3 1 4 3 8 5 4 4 3 4 7 9 10 12 11 12 10 7 5 5 8 12 15 17 17 16 16
3 2 4 3 1 3 5 7 5 3 3 4 5 3 4 3 2 3 4 10 14 13 12 10 6 7 6 4 1 2 5 7 4 3 1 2 3 5 7 9 12 12 10 8 8 7 6 8 11 14 16 17 17 17
4 4 3 3 6 6 4 4 3 2 1 2 1 1 2 2 2 6 9 15 15 13 13 12 11 12 8 7 3 2 1 2 5 2 3 3 2 5 8 6 8 9 6 6 9 10 9 11 12 15 17 17 17 18
3 3 3 3 4 3 3 1 1 1 2 2 3 2 2 2 4 6 11 13 13 12 12 10 9 10 8 7 5 2 3 2 2 4 3 2 3 4 5 6 4 4 3 1 3 4 7 10 13 14 15 16 16 17
2 4 5 3 3 2 1 2 0 0 2 1 2 1 2 3 2 2 7 14 14 12 12 11 10 8 9 5 4 3 2 1 2 5 4 3 3 3 4 5 5 3 1 1 3 5 7 10 12 13 14 15 14 14
3 2 2 2 2 2 1 3 4 4 2 1 2 2 3 3 5 3 8 14 12 14 12 9 6 6 5 4 4 4 3 2 2 4 5 4 3 4 4 4 4 2 4 6 6 6 8 9 10 11 12 13 13 14
Wind_Direction
215 264 140 97 85 97 111 126 134 131 128 132 130 128 136 139 135 127 112 130 117 102 91 111 120 121 107 144 151 169 98 64 88 167 185 212 200 251 287 285 285 225 203 205 231 251 261 212 310 102 229 274 286 298
185 120 118 113 98 95 97 100 109 113 117 124 122 128 134 135 123 115 81 103 94 78 99 93 94 165 194 161 131 49 122 130 153 102 136 134 170 182 170 280 322 265 209 213 247 257 288 264 255 264 232 273 276 304
109 107 104 104 105 102 101 102 103 109 115 121 121 120 115 116 128 125 121 119 101 90 60 83 86 92 103 109 114 117 20 141 140 154 156 161 191 147 190 231 227 256 184 209 236 241 260 259 258 267 262 257 267 249
106 102 101 100 101 102 105 108 111 113 116 119 119 122 127 131 131 132 107 101 96 100 111 162 65 78 111 159 131 91 123 92 98 79 107 131 163 185 225 245 231 208 336 267 269 277 282 263 264 274 297 281 299 264
96 99 101 101 103 104 107 110 112 115 118 119 119 121 123 123 119 105 82 65 74 119 140 143 143 38 150 140 149 150 127 113 107 79 97 207 213 256 236 232 257 191 251 246 259 275 265 278 286 287 281 293 294 293
97 98 100 101 104 106 109 112 114 114 117 117 118 119 119 118 119 110 63 45 51 71 93 84 320 7 49 143 161 146 135 103 124 147 197 216 231 155 240 253 198 219 234 239 255 265 266 274 267 272 281 282 286 288
94 96 98 101 103 106 110 113 113 112 114 115 114 110 107 104 96 72 115 100 55 62 76 76 37 359 16 100 65 73 105 129 131 171 187 192 214 193 244 264 272 260 252 263 257 262 273 265 269 277 277 280 281 281
96 98 98 100 103 106 110 115 116 112 110 110 109 106 95 88 87 61 56 59 51 89 70 92 350 43 12 38 63 32 97 51 265 207 324 201 149 190 259 244 261 259 241 254 258 260 253 263 279 278 285 285 278 284
101 102 103 105 106 107 109 111 113 113 113 113 107 100 85 40 46 69 65 58 56 70 104 74 98 214 351 22 47 41 50 340 288 214 240 123 202 224 240 272 271 259 248 268 278 262 254 252 261 294 327 333 324 324
104 106 107 107 107 109 111 112 115 117 116 115 85 50 37 39 103 89 40 29 20 355 36 78 330 35 54 17 341 60 25 280 274 238 158 204 239 254 289 318 41 17 12 355 331 334 340 314 340 335 328 319 317 321
106 107 107 108 109 112 115 116 115 110 116 46 56 63 121 116 88 37 50 66 330 47 47 106 145 69 350 103 213 159 233 215 267 269 210 254 260 263 27 15 44 42 23 12 6 3 1 347 334 328 314 312 308 309
111 112 111 111 113 112 108 103 94 86 77 94 111 111 81 40 40 77 21 48 54 110 122 118 195 187 247 126 99 276 208 73 254 214 246 261 253 13 34 21 27 18 15 15 7 348 348 339 331 328 318 314 316 315
119 123 122 119 114 108 88 90 106 99 94 79 59 58 53 346 49 86 76 3 28 141 154 119 298 202 195 212 217 174 211 231 1 226 241 264 28 28 12 5 348 330 319 330 318 314 327 327 330 321 315 319 322 314
120 129 129 125 118 106 100 116 92 40 49 66 78 43 89 338 279 179 152 152 213 140 179 182 215 212 183 190 216 231 231 127 261 236 233 31 359 354 1 358 347 335 329 313 284 277 280 284 296 314 323 320 323 328
100 107 106 101 104 104 100 99 55 32 55 72 63 115 178 224 224 211 186 36 242 169 111 12 196 139 164 244 226 232 202 238 215 344 55 2 355 346 346 343 337 329 319 314 308 288 282 282 280 301 321 329 341 7
107 110 112 106 102 86 78 70 49 45 52 70 79 72 335 58 320 1 118 261 229 152 243 175 161 197 219 216 210 237 234 214 108 9 50 321 345 329 313 328 328 315 316 323 323 305 286 279 278 291 315 326 333 23
100 86 138 136 104 76 46 49 34 44 73 62 311 82 137 145 199 216 170 224 166 126 178 260 255 219 154 220 223 264 244 108 341 318 320 331 335 321 312 310 320 323 322 314 314 312 287 282 285 254 251 313 79 122
121 132 132 130 114 67 32 33 74 49 21 323 103 254 213 190 181 243 226 196 150 190 127 203 288 247 238 240 250 239 260 291 294 297 304 302 315 303 307 319 317 312 306 307 304 305 302 273 239 236 207 164 134 120
135 139 138 132 56 49 53 18 38 31 252 242 251 218 213 243 228 228 186 189 198 133 114 125 233 232 241 220 192 211 198 196 274 262 256 291 334 330 329 328 322 316 314 314 309 304 297 288 263 245 199 174 148 141
125 135 147 133 19 47 40 30 47 283 278 253 290 257 224 222 221 84 314 160 160 168 186 202 218 199 179 166 185 182 186 251 308 324 310 312 331 334 331 331 325 322 316 304 296 298 286 292 298 250 206 177 158 146
116 138 183 25 22 45 269 221 253 251 299 281 259 255 267 295 234 211 251 173 182 202 223 196 182 217 272 18 91 102 64 16 343 322 311 306 325 318 311 319 324 319 316 312 295 283 259 245 259 227 166 147 143 140
115 184 107 165 44 316 283 240 252 320 251 280 291 223 279 308 275 223 160 204 215 214 177 168 188 180 316 135 108 99 73 30 3 342 325 312 310 321 323 324 326 320 317 310 304 275 215 184 160 138 127 111 123 122
173 178 177 176 171 238 265 150 197 230 219 238 189 236 250 236 226 159 237 171 209 219 188 144 160 123 134 143 134 124 63 12 335 324 321 313 310 308 304 310 312 308 312 317 325 283 160 158 148 139 133 124 116 106
229 250 214 202 191 242 274 229 205 241 302 256 221 266 268 231 154 241 246 214 236 159 109 142 130 98 78 130 180 237 271 320 316 315 326 306 303 313 321 313 315 311 326 317 320 353 135 136 139 134 132 124 119 114
137 270 155 238 283 189 232 318 309 309 246 242 340 298 278 9 167 261 240 263 184 170 176 32 104 131 171 232 277 270 276 257 279 285 316 298 320 328 332 336 335 329 2 349 332 24 117 138 140 136 135 131 125 120
203 235 167 202 240 173 197 192 213 215 180 273 241 297 15 74 7 253 234 200 199 179 190 180 174 170 253 202 229 281 307 297 317 275 303 331 341 335 319 329 334 338 357 352 330 101 114 134 132 132 129 133 135 129
230 239 203 199 183 139 29 337 174 123 185 210 237 132 81 222 244 251 263 215 171 196 185 185 182 186 188 219 313 333 319 317 308 287 300 315 43 27 14 347 327 337 352 4 18 94 129 136 137 137 133 139 145 145
216 181 180 193 180 164 165 171 186 210 220 192 117 186 194 202 235 227 203 187 170 155 157 158 167 177 175 155 91 354 341 343 340 130 144 129 75 47 36 23 13 7 15 25 35 68 114 141 145 146 143 139 144 156
211 181 117 164 141 198 208 193 214 222 194 160 171 218 234 224 217 186 195 176 171 165 154 157 152 163 155 158 148 15 6 6 21 59 60 293 339 1 10 7 10 17 25 45 60 70 98 128 142 145 145 142 146 149
239 158 120 159 172 212 233 184 225 250 231 180 157 31 336 288 243 200 179 171 170 181 191 195 191 189 195 203 227 230 345 28 36 65 168 226 256 342 353 352 9 21 42 88 97 101 108 119 131 133 134 136 141 140
127 98 88 140 217 242 234 269 355 66 28 8 359 175 234 296 300 228 209 203 191 176 165 161 174 197 195 195 203 187 288 235 353 342 299 269 287 321 337 346 337 1 26 59 84 114 125 129 134 137 140 141 146 148
104 163 146 172 259 286 25 75 60 81 337 351 282 350 2 25 290 274 197 182 171 174 191 194 195 217 214 209 223 206 200 177 14 357 343 258 264 295 314 328 338 257 292 83 140 136 137 141 142 145 146 148 151 155
89 83 83 89 25 7 311 87 24 331 340 309 273 200 212 184 235 246 189 195 202 202 205 212 182 170 172 178 178 188 204 231 292 345 349 327 305 294 303 302 297 262 229 214 176 156 150 152 153 156 158 159 159 160
Height
544 546 536 532 522 519 514 526 544 562 578 594 608 623 640 652 661 668 685 691 693 707 715 720 725 730 738 745 751 755 758 765 768 769 771 776 776 771 770 757 755 759 770 764 758 759 752 747 743 747 746 741 744 743
546 535 536 538 541 541 538 547 557 570 582 596 610 625 638 648 657 662 675 685 688 704 718 723 727 728 731 734 743 750 750 756 763 775 779 785 778 783 783 768 760 766 761 770 769 766 747 743 743 739 737 737 734 735
536 543 546 550 555 558 563 569 579 588 600 613 625 636 644 657 668 674 685 694 699 713 724 729 731 732 733 735 736 747 754 754 759 761 773 781 781 774 777 771 765 759 755 762 761 748 744 741 737 734 732 729 726 723
548 554 562 566 570 575 580 589 597 605 616 625 635 647 659 668 675 682 689 696 699 712 728 735 733 733 735 737 739 740 745 752 758 763 775 782 783 770 771 763 763 761 755 752 748 739 736 729 728 729 725 723 719 717
563 572 578 582 588 593 599 607 614 622 630 638 647 656 666 673 679 686 693 699 702 707 728 735 736 737 735 737 739 742 745 753 759 770 777 776 774 773 767 764 751 754 746 753 743 734 736 728 727 724 723 718 714 712
586 590 596 601 607 612 618 625 630 635 642 648 656 666 674 680 686 691 705 709 707 705 720 738 739 737 736 737 741 745 749 754 759 767 772 768 762 768 772 756 738 738 736 736 733 728 728 725 723 718 716 713 709 706
605 609 613 618 623 626 631 634 641 647 651 659 667 675 685 690 690 698 708 709 707 710 726 744 744 741 739 742 747 749 750 754 756 763 768 762 761 760 752 742 717 729 729 727 723 723 724 719 717 710 710 708 705 702
624 627 630 633 637 640 645 650 655 659 664 671 679 685 690 693 698 702 708 710 713 718 727 744 747 744 742 747 750 750 753 755 757 755 758 755 754 752 740 722 718 718 719 718 715 713 713 710 709 707 703 702 699 698
640 643 646 648 651 654 658 661 665 671 676 681 686 690 694 698 706 715 717 718 718 723 744 748 752 760 747 751 750 753 755 768 756 761 752 751 751 743 720 720 718 717 715 712 709 707 707 707 704 704 704 702 699 696
654 656 659 661 663 666 670 674 678 682 686 689 691 695 714 717 719 721 723 727 731 738 742 754 757 756 753 757 760 764 759 757 753 746 743 747 731 718 720 718 716 716 715 714 710 707 706 706 706 706 706 704 702 700
666 669 671 673 676 679 682 684 687 689 690 692 703 714 720 721 721 728 743 746 750 750 752 754 754 756 753 765 765 761 769 759 752 744 740 738 727 721 718 717 718 718 718 718 717 715 713 712 710 708 706 705 702 700
677 680 682 684 685 689 691 692 693 695 698 701 705 715 719 726 734 741 753 746 748 747 751 752 754 756 755 754 759 762 762 762 752 744 737 733 720 717 718 717 719 720 718 717 716 716 714 713 712 710 708 705 702 699
687 689 692 693 696 698 698 700 700 702 704 706 712 726 734 738 750 746 761 750 757 749 752 750 755 754 753 753 753 753 758 753 748 741 731 724 718 720 721 720 719 719 717 715 714 713 712 711 711 710 707 705 701 698
693 695 698 700 702 703 705 707 708 708 708 717 729 746 751 760 749 745 742 745 745 746 747 748 747 748 752 750 752 748 741 742 744 744 731 728 727 726 725 723 722 720 718 715 712 711 710 709 708 706 704 703 700 698
701 702 704 707 710 712 713 714 713 712 715 726 732 750 748 745 745 746 746 745 744 744 749 748 748 748 747 747 745 734 733 738 731 725 726 732 731 730 727 725 723 721 719 716 711 710 709 707 705 704 703 702 700 699
709 711 713 715 716 717 717 717 717 716 724 728 733 744 747 749 754 754 753 750 741 742 741 740 746 745 743 740 739 735 723 726 732 730 733 735 733 733 730 727 726 724 719 715 712 710 707 706 705 703 702 701 701 701
715 716 718 720 720 720 720 720 722 726 729 730 741 741 745 748 748 748 745 741 737 738 751 736 737 733 735 732 724 722 725 729 733 734 735 733 732 730 728 725 723 720 717 714 710 707 704 703 703 702 702 702 701 701
718 721 722 723 724 724 725 726 729 731 729 735 741 743 742 739 742 741 737 735 735 737 738 739 738 731 735 731 740 743 739 736 735 736 735 732 730 728 725 723 720 717 713 710 707 704 702 701 701 701 701 702 702 703
722 724 726 728 728 728 730 732 732 736 736 736 735 735 734 732 729 727 728 728 729 730 736 739 734 730 726 733 739 735 737 737 736 736 733 731 729 727 724 721 718 713 710 707 704 702 700 699 698 698 699 700 702 704
727 729 730 731 731 731 734 734 735 735 733 734 732 732 730 728 725 726 726 727 727 728 730 731 727 730 731 730 732 735 735 735 735 733 731 729 727 726 723 721 718 714 709 705 702 700 698 697 696 695 696 697 700 703
731 732 733 733 734 734 735 734 733 732 732 732 728 727 726 724 725 724 724 724 723 723 729 730 734 733 731 731 732 732 734 734 734 733 732 730 727 726 723 720 717 713 710 705 700 696 695 695 694 694 694 696 698 701
732 733 734 735 735 735 735 734 734 733 731 727 727 724 726 732 731 723 721 719 722 731 731 732 731 731 731 732 733 734 735 735 734 733 732 731 728 725 721 719 716 711 708 704 698 694 692 693 694 695 697 699 701 704
733 734 735 735 737 737 738 733 733 731 731 726 724 722 725 728 722 718 717 718 727 727 726 727 728 729 730 732 733 734 734 733 733 732 731 729 727 725 722 718 715 711 706 701 697 692 690 692 694 696 699 702 705 709
733 734 732 731 733 739 734 730 727 724 723 724 721 723 717 724 717 717 712 718 726 724 725 727 727 730 731 732 733 733 732 732 732 730 729 728 725 722 720 716 712 709 706 701 697 694 692 693 695 698 701 704 708 711
735 735 734 730 734 732 737 743 738 726 736 732 728 734 729 721 730 731 719 728 725 728 728 727 728 729 732 733 732 731 731 731 730 729 726 726 724 721 717 714 710 708 705 701 698 697 696 696 698 700 703 706 709 713
734 733 734 731 739 733 731 741 745 741 737 738 735 729 730 736 736 728 720 724 727 724 726 727 729 730 730 729 730 729 729 729 728 727 725 725 723 722 720 717 713 709 706 703 700 699 699 699 701 703 706 709 712 715
729 724 719 719 720 720 732 732 724 734 742 739 734 738 742 738 740 721 718 717 717 716 718 721 723 725 727 727 728 727 727 727 726 725 724 724 723 722 720 719 716 713 708 704 702 701 701 702 704 706 709 712 715 717
713 712 718 719 722 719 732 735 734 731 725 719 728 734 731 728 720 715 712 711 712 715 718 720 722 724 724 725 726 726 726 725 724 723 723 724 723 722 721 719 717 713 710 708 706 705 705 705 706 708 711 714 717 720
711 707 713 726 729 723 720 718 718 712 709 711 720 724 719 713 709 709 708 709 712 714 717 719 721 723 723 725 725 725 725 724 724 727 728 729 725 723 721 720 717 715 712 710 709 708 708 709 710 712 714 716 719 722
710 703 715 722 721 717 711 709 711 709 707 707 708 709 709 708 705 706 706 708 710 712 714 716 718 720 722 723 724 725 725 725 724 725 727 727 724 723 722 720 719 717 716 714 713 712 712 713 714 716 718 720 722 725
698 704 713 715 719 712 713 711 710 711 712 713 714 712 711 711 705 703 704 706 708 710 712 715 717 719 720 721 722 723 724 724 724 724 723 723 723 723 722 721 720 719 718 717 716 716 716 716 718 719 721 723 726 728
704 706 710 717 713 712 710 713 717 716 716 714 712 717 713 712 711 704 701 703 705 708 710 712 714 716 718 719 720 721 722 722 723 723 722 721 721 721 721 720 720 719 719 718 718 718 719 719 721 722 724 726 728 730
705 710 716 716 714 712 713 716 720 719 716 714 711 713 712 708 706 701 700 701 703 705 707 710 712 714 716 718 719 720 721 721 722 721 721 720 720 720 719 719 719 719 719 719 719 719 720 722 723 725 726 728 730 732